Time_in_sec,gx,gy,gz
1314362646.02130032,0.13914995,0.02414688,-0.98997688
1314362646.06949306,0.13937077,0.02413273,-0.98994616
1314362646.10946155,0.13940819,0.02401996,-0.98994363
1314362646.16942525,0.13953793,0.02387086,-0.98992896
1314362646.22150898,0.13965046,0.02374654,-0.98991608
1314362646.26898074,0.13967963,0.02382095,-0.98991018
1314362646.32447362,0.13975069,0.02371538,-0.98990268
1314362646.36808825,0.13979465,0.02361948,-0.98989877
1314362646.42152596,0.13998109,0.02369859,-0.98987053
1314362646.46946025,0.13992547,0.02358590,-0.98988109
1314362646.52176952,0.13998691,0.02357865,-0.98987257
1314362646.56849766,0.14004542,0.02340049,-0.98986853
1314362646.62208104,0.14023780,0.02324845,-0.98984487
1314362646.66853738,0.13997347,0.02338474,-0.98987907
1314362646.72061491,0.14008458,0.02340641,-0.98986284
1314362646.76947999,0.13990747,0.02378139,-0.98987896
1314362646.82061505,0.14009434,0.02384181,-0.98985107
1314362646.86990333,0.14036399,0.02390918,-0.98981125
1314362646.92198229,0.14047577,0.02385349,-0.98979673
1314362646.97092485,0.14050136,0.02377496,-0.98979499
1314362647.02187133,0.14070831,0.02401751,-0.98975973
1314362647.06900692,0.14069340,0.02400885,-0.98976206
1314362647.12049627,0.14049595,0.02406292,-0.98978880
1314362647.16999125,0.14075573,0.02384439,-0.98975718
1314362647.22147155,0.14090395,0.02410146,-0.98972986
1314362647.27116513,0.14081455,0.02412074,-0.98974211
1314362647.32148671,0.14073326,0.02405662,-0.98975524
1314362647.36952686,0.14076205,0.02429825,-0.98974524
1314362647.42269897,0.14097864,0.02448162,-0.98970989
1314362647.46846223,0.14104843,0.02462568,-0.98969638
1314362647.52146792,0.14085660,0.02427503,-0.98973236
1314362647.56953263,0.14088184,0.02435257,-0.98972686
1314362647.62046266,0.14072028,0.02426109,-0.98975209
1314362647.67247033,0.14093378,0.02414419,-0.98972457
1314362647.72103119,0.14118817,0.02424800,-0.98968578
1314362647.77247453,0.14128752,0.02402579,-0.98967702
1314362647.82147503,0.14136214,0.02388910,-0.98966967
1314362647.86848688,0.14140828,0.02408752,-0.98965827
1314362647.92051649,0.14160157,0.02401852,-0.98963231
1314362647.97531009,0.14165308,0.02389529,-0.98962792
1314362648.02059245,0.14141442,0.02392270,-0.98966139
1314362648.06949568,0.14150247,0.02389561,-0.98964946
1314362648.10949874,0.14158840,0.02412972,-0.98963149
1314362648.16903543,0.14146587,0.02399940,-0.98965218
1314362648.22145033,0.14144303,0.02401071,-0.98965517
1314362648.26906681,0.14131848,0.02402329,-0.98967266
1314362648.32061481,0.14154592,0.02407192,-0.98963897
1314362648.37221861,0.14124177,0.02414412,-0.98968067
1314362648.42060494,0.14114406,0.02440165,-0.98968829
1314362648.47123170,0.14125957,0.02462341,-0.98966632
1314362648.52105665,0.14143094,0.02462232,-0.98964187
1314362648.56847787,0.14123816,0.02508594,-0.98965776
1314362648.62157249,0.14119285,0.02488747,-0.98966923
1314362648.66852784,0.14135739,0.02492222,-0.98964487
1314362648.72161388,0.14135621,0.02488535,-0.98964597
1314362648.76961827,0.14137459,0.02493464,-0.98964210
1314362648.82162213,0.14160602,0.02490242,-0.98960982
1314362648.87250781,0.14178391,0.02479903,-0.98958695
1314362648.92150450,0.14193466,0.02465290,-0.98956899
1314362648.96962452,0.14187651,0.02457173,-0.98957935
1314362649.02146578,0.14179144,0.02452015,-0.98959282
1314362649.06891751,0.14174203,0.02470693,-0.98959525
1314362649.12050557,0.14186352,0.02477809,-0.98957607
1314362649.16947699,0.14208262,0.02480572,-0.98954394
1314362649.22061896,0.14218924,0.02493517,-0.98952537
1314362649.26948166,0.14211067,0.02480067,-0.98954004
1314362649.32152152,0.14218489,0.02488979,-0.98952714
1314362649.36961555,0.14198714,0.02470726,-0.98956011
1314362649.42144799,0.14194582,0.02478183,-0.98956417
1314362649.46962023,0.14179812,0.02462356,-0.98958930
1314362649.52161312,0.14221658,0.02464973,-0.98952859
1314362649.56950402,0.14213240,0.02470954,-0.98953920
1314362649.62162447,0.14231499,0.02463395,-0.98951484
1314362649.66945767,0.14238142,0.02459099,-0.98950635
1314362649.70950103,0.14219774,0.02472166,-0.98952951
1314362649.76955295,0.14234874,0.02438514,-0.98951615
1314362649.82145000,0.14228328,0.02437828,-0.98952573
1314362649.86960578,0.14251219,0.02438400,-0.98949265
1314362649.92060232,0.14274382,0.02416837,-0.98946455
1314362649.97136664,0.14287407,0.02365461,-0.98945816
1314362650.02098370,0.14306884,0.02364391,-0.98943028
1314362650.07350016,0.14284940,0.02389205,-0.98945602
1314362650.12151575,0.14298547,0.02395437,-0.98943486
1314362650.16961932,0.14310005,0.02416090,-0.98941327
1314362650.22147655,0.14323055,0.02425717,-0.98939204
1314362650.26162457,0.14323922,0.02432166,-0.98938920
1314362650.32095003,0.14306695,0.02435363,-0.98941334
1314362650.36946130,0.14310077,0.02442212,-0.98940676
1314362650.42060518,0.14303480,0.02458191,-0.98941234
1314362650.46845007,0.14291289,0.02458912,-0.98942978
1314362650.52084732,0.14275155,0.02462044,-0.98945229
1314362650.56887078,0.14276075,0.02436657,-0.98945724
1314362650.62144804,0.14263881,0.02466730,-0.98946738
1314362650.66961646,0.14260075,0.02498071,-0.98946500
1314362650.72162509,0.14255069,0.02486803,-0.98947505
1314362650.76948977,0.14258709,0.02503776,-0.98946553
1314362650.82163525,0.14249128,0.02527576,-0.98947328
1314362650.87252235,0.14260476,0.02561407,-0.98944823
1314362650.90945601,0.14269555,0.02568426,-0.98943332
1314362650.96946311,0.14285106,0.02554824,-0.98941440
1314362651.02144957,0.14276347,0.02537134,-0.98943160
1314362651.06961513,0.14290173,0.02522033,-0.98941550
1314362651.12098384,0.14277947,0.02523728,-0.98943272
1314362651.16969633,0.14260648,0.02519069,-0.98945885
1314362651.22061753,0.14267319,0.02490556,-0.98945645
1314362651.27250886,0.14274740,0.02512752,-0.98944014
1314362651.32155442,0.14288839,0.02496774,-0.98942383
1314362651.36949682,0.14276004,0.02483411,-0.98944572
1314362651.42147636,0.14273783,0.02468966,-0.98945254
1314362651.46083188,0.14263845,0.02472037,-0.98946611
1314362651.52061749,0.14286176,0.02455901,-0.98943791
1314362651.57087302,0.14296672,0.02460066,-0.98942171
1314362651.62047076,0.14271989,0.02447592,-0.98946044
1314362651.67358470,0.14283166,0.02441636,-0.98944578
1314362651.72057343,0.14302244,0.02451419,-0.98941581
1314362651.76961732,0.14325786,0.02458232,-0.98938006
1314362651.82153153,0.14334604,0.02440271,-0.98937173
1314362651.86859322,0.14336862,0.02452271,-0.98936549
1314362651.92161274,0.14340520,0.02445222,-0.98936193
1314362651.97149253,0.14341387,0.02443912,-0.98936100
1314362652.02162957,0.14329519,0.02438729,-0.98937948
1314362652.07019043,0.14321184,0.02425831,-0.98939472
1314362652.12160707,0.14347764,0.02427649,-0.98935576
1314362652.16949463,0.14308393,0.02400611,-0.98941937
1314362652.22144961,0.14322463,0.02418426,-0.98939468
1314362652.27047014,0.14328901,0.02409132,-0.98938762
1314362652.32060623,0.14332681,0.02410241,-0.98938188
1314362652.36948752,0.14339601,0.02412759,-0.98937124
1314362652.42156410,0.14349974,0.02393588,-0.98936085
1314362652.47059321,0.14344513,0.02416382,-0.98936323
1314362652.50949359,0.14356260,0.02407179,-0.98934844
1314362652.57071757,0.14359943,0.02424160,-0.98933894
1314362652.62148094,0.14371358,0.02405447,-0.98932694
1314362652.66880059,0.14376374,0.02398448,-0.98932135
1314362652.72047329,0.14383897,0.02401224,-0.98930974
1314362652.76951861,0.14387409,0.02404504,-0.98930384
1314362652.82052660,0.14368047,0.02397327,-0.98933372
1314362652.86962867,0.14378076,0.02368902,-0.98932599
1314362652.92083907,0.14390310,0.02364516,-0.98930926
1314362652.96948886,0.14362317,0.02391704,-0.98934340
1314362653.02143717,0.14368167,0.02393234,-0.98933454
1314362653.06962490,0.14387672,0.02394213,-0.98930595
1314362653.12060666,0.14394697,0.02414261,-0.98929086
1314362653.16952515,0.14391096,0.02423957,-0.98929373
1314362653.22086954,0.14385684,0.02412917,-0.98930430
1314362653.26949763,0.14377879,0.02404500,-0.98931769
1314362653.32050848,0.14375566,0.02423754,-0.98931636
1314362653.36960101,0.14369742,0.02421551,-0.98932536
1314362653.42144966,0.14370266,0.02428671,-0.98932285
1314362653.46850514,0.14367822,0.02429007,-0.98932632
1314362653.52146769,0.14379191,0.02443383,-0.98930626
1314362653.56951785,0.14354926,0.02462547,-0.98933675
1314362653.62088442,0.14354129,0.02445693,-0.98934208
1314362653.66972804,0.14345666,0.02454571,-0.98935216
1314362653.70946908,0.14330931,0.02458697,-0.98937249
1314362653.76880598,0.14334866,0.02457647,-0.98936705
1314362653.82147765,0.14339167,0.02470788,-0.98935754
1314362653.86953616,0.14360941,0.02467535,-0.98932677
1314362653.92161727,0.14371068,0.02491146,-0.98930615
1314362653.97091675,0.14382353,0.02465860,-0.98929609
1314362654.02050138,0.14358861,0.02452689,-0.98933348
1314362654.06949139,0.14391394,0.02433474,-0.98929096
1314362654.12153196,0.14398442,0.02455673,-0.98927522
1314362654.16960287,0.14414016,0.02457096,-0.98925218
1314362654.22071743,0.14438885,0.02454914,-0.98921646
1314362654.26860356,0.14432721,0.02437184,-0.98922984
1314362654.32161403,0.14444635,0.02422116,-0.98921615
1314362654.36949897,0.14448196,0.02426950,-0.98920976
1314362654.42065024,0.14449950,0.02401941,-0.98921331
1314362654.47349834,0.14431815,0.02392607,-0.98924204
1314362654.51804829,0.14402930,0.02392977,-0.98928405
1314362654.56855083,0.14410398,0.02392578,-0.98927327
1314362654.61779451,0.14406111,0.02388044,-0.98928061
1314362654.66951609,0.14412294,0.02390522,-0.98927100
1314362654.72061300,0.14390837,0.02417446,-0.98929570
1314362654.76953554,0.14386059,0.02408044,-0.98930494
1314362654.82062149,0.14376616,0.02403802,-0.98931970
1314362654.86949539,0.14376331,0.02408201,-0.98931904
1314362654.92112398,0.14388066,0.02394523,-0.98930530
1314362654.96964455,0.14364099,0.02389785,-0.98934128
1314362655.02150393,0.14336000,0.02396327,-0.98938045
1314362655.06864262,0.14342722,0.02398830,-0.98937010
1314362655.12085152,0.14341541,0.02390776,-0.98937376
1314362655.16947484,0.14338747,0.02397759,-0.98937612
1314362655.22061944,0.14333752,0.02378520,-0.98938800
1314362655.27353263,0.14335383,0.02416824,-0.98937636
1314362655.32068706,0.14347588,0.02389705,-0.98936525
1314362655.36874032,0.14339044,0.02389113,-0.98937778
1314362655.42144346,0.14363858,0.02362720,-0.98934813
1314362655.46869898,0.14359357,0.02365442,-0.98935401
1314362655.52161980,0.14358518,0.02383553,-0.98935088
1314362655.57348156,0.14356108,0.02369132,-0.98935784
1314362655.62074971,0.14354296,0.02360917,-0.98936243
1314362655.66950631,0.14390151,0.02342526,-0.98931472
1314362655.71779847,0.14350948,0.02370685,-0.98936496
1314362655.76852536,0.14349569,0.02365171,-0.98936827
1314362655.82145095,0.14368634,0.02357638,-0.98934240
1314362655.86960125,0.14353137,0.02350469,-0.98936660
1314362655.92163062,0.14345845,0.02360498,-0.98937479
1314362655.96977997,0.14355480,0.02372222,-0.98935801
1314362656.02081323,0.14363999,0.02371689,-0.98934578
1314362656.06853437,0.14360020,0.02359661,-0.98935443
1314362656.10947490,0.14370175,0.02361505,-0.98933924
1314362656.16825128,0.14372994,0.02352358,-0.98933733
1314362656.22148824,0.14386874,0.02375823,-0.98931154
1314362656.26865435,0.14382975,0.02374428,-0.98931755
1314362656.32062054,0.14377382,0.02372015,-0.98932626
1314362656.36948705,0.14376679,0.02376299,-0.98932625
1314362656.42049074,0.14391391,0.02372029,-0.98930589
1314362656.47351146,0.14388632,0.02387619,-0.98930615
1314362656.52053499,0.14378638,0.02398648,-0.98931801
1314362656.56862783,0.14394900,0.02388799,-0.98929675
1314362656.62145090,0.14405414,0.02429067,-0.98927164
1314362656.66852283,0.14431630,0.02415682,-0.98923670
1314362656.72163296,0.14412354,0.02417031,-0.98926447
1314362656.77254272,0.14398513,0.02391518,-0.98929083
1314362656.82165432,0.14398917,0.02393613,-0.98928974
1314362656.87251663,0.14368596,0.02409504,-0.98932996
1314362656.92049217,0.14390565,0.02408492,-0.98929828
1314362656.96950555,0.14392529,0.02397011,-0.98929821
1314362657.02145290,0.14425216,0.02370175,-0.98925707
1314362657.06877327,0.14460405,0.02365985,-0.98920669
1314362657.12163568,0.14442357,0.02355011,-0.98923568
1314362657.16948676,0.14423237,0.02353934,-0.98926383
1314362657.21775055,0.14422922,0.02361023,-0.98926260
1314362657.27352428,0.14436344,0.02371499,-0.98924051
1314362657.32146072,0.14431113,0.02414633,-0.98923771
1314362657.36967325,0.14435543,0.02420387,-0.98922984
1314362657.42199135,0.14441525,0.02408638,-0.98922398
1314362657.46967506,0.14411674,0.02414198,-0.98926616
1314362657.52071333,0.14396172,0.02415838,-0.98928833
1314362657.57014513,0.14409026,0.02392512,-0.98927528
1314362657.62055397,0.14382715,0.02380658,-0.98931643
1314362657.67362928,0.14384285,0.02385195,-0.98931305
1314362657.70948267,0.14395365,0.02369559,-0.98930070
1314362657.76958466,0.14393972,0.02363422,-0.98930419
1314362657.82144833,0.14388948,0.02355059,-0.98931349
1314362657.86847138,0.14396957,0.02352699,-0.98930240
1314362657.92162466,0.14417109,0.02359013,-0.98927155
1314362657.96946931,0.14403238,0.02357590,-0.98929210
1314362658.02052379,0.14393676,0.02363261,-0.98930466
1314362658.07059264,0.14381184,0.02372896,-0.98932052
1314362658.10946012,0.14386243,0.02375843,-0.98931246
1314362658.16958070,0.14374767,0.02373994,-0.98932958
1314362658.22389889,0.14364440,0.02385608,-0.98934179
1314362658.26846719,0.14353968,0.02396667,-0.98935431
1314362658.32231069,0.14362487,0.02391099,-0.98934330
1314362658.36950898,0.14378450,0.02372356,-0.98932462
1314362658.41765451,0.14372129,0.02390799,-0.98932937
1314362658.47350407,0.14367451,0.02369847,-0.98934120
1314362658.52153683,0.14390805,0.02369803,-0.98930727
1314362658.56966972,0.14390985,0.02370263,-0.98930690
1314362658.62148976,0.14380439,0.02374410,-0.98932124
1314362658.66868782,0.14382291,0.02385078,-0.98931598
1314362658.71766877,0.14376670,0.02386365,-0.98932384
1314362658.76973701,0.14361209,0.02403838,-0.98934207
1314362658.82067013,0.14353956,0.02406645,-0.98935191
1314362658.87351537,0.14355698,0.02415325,-0.98934727
1314362658.90948391,0.14386240,0.02401551,-0.98930625
1314362658.96855617,0.14399817,0.02373233,-0.98929334
1314362659.02158213,0.14395061,0.02377362,-0.98929927
1314362659.06058717,0.14395523,0.02390549,-0.98929541
1314362659.11766863,0.14407798,0.02399441,-0.98927539
1314362659.16954422,0.14414491,0.02402661,-0.98926486
1314362659.22155309,0.14418357,0.02382892,-0.98926401
1314362659.26859522,0.14430983,0.02381026,-0.98924605
1314362659.32150030,0.14428477,0.02362715,-0.98925409
1314362659.36863375,0.14444877,0.02381206,-0.98922573
1314362659.42148280,0.14459543,0.02386735,-0.98920297
1314362659.47286391,0.14461155,0.02435954,-0.98918861
1314362659.52064848,0.14455406,0.02427088,-0.98919919
1314362659.57350683,0.14486259,0.02439025,-0.98915112
1314362659.62059140,0.14481104,0.02450758,-0.98915577
1314362659.66949224,0.14477411,0.02449903,-0.98916139
1314362659.72057462,0.14466256,0.02448511,-0.98917805
1314362659.76863480,0.14470982,0.02439445,-0.98917338
1314362659.81749988,0.14483049,0.02427418,-0.98915868
1314362659.86859655,0.14484265,0.02433608,-0.98915538
1314362659.92060041,0.14455638,0.02431753,-0.98919771
1314362659.96946406,0.14444583,0.02420999,-0.98921650
1314362660.02058315,0.14451493,0.02426969,-0.98920494
1314362660.07353687,0.14441601,0.02422150,-0.98922057
1314362660.12054682,0.14431720,0.02415648,-0.98923658
1314362660.16959548,0.14451145,0.02396354,-0.98921291
1314362660.21752119,0.14424292,0.02410578,-0.98924865
1314362660.26956081,0.14421751,0.02422136,-0.98924953
1314362660.32058334,0.14399955,0.02392962,-0.98928838
1314362660.36967206,0.14401902,0.02406410,-0.98928229
1314362660.42063141,0.14378728,0.02411774,-0.98931469
1314362660.47351789,0.14393391,0.02406800,-0.98929458
1314362660.50947380,0.14406305,0.02392245,-0.98927931
1314362660.56858993,0.14403188,0.02380645,-0.98928665
1314362660.61747146,0.14386694,0.02397791,-0.98930651
1314362660.66859961,0.14380029,0.02394893,-0.98931690
1314362660.72064424,0.14357960,0.02389055,-0.98935036
1314362660.76854300,0.14361063,0.02382407,-0.98934746
1314362660.82064056,0.14381622,0.02386401,-0.98931664
1314362660.86955190,0.14386219,0.02385386,-0.98931020
1314362660.90949607,0.14389937,0.02387312,-0.98930432
1314362660.96859050,0.14414730,0.02384361,-0.98926894
1314362661.01748085,0.14391587,0.02372177,-0.98930557
1314362661.06854558,0.14369057,0.02401006,-0.98933136
1314362661.12063289,0.14384755,0.02407392,-0.98930699
1314362661.16952515,0.14376377,0.02384757,-0.98932465
1314362661.21756029,0.14374669,0.02395232,-0.98932461
1314362661.26857114,0.14391243,0.02412581,-0.98929629
1314362661.32052660,0.14382784,0.02437238,-0.98930255
1314362661.36968327,0.14405283,0.02439878,-0.98926917
1314362661.41775823,0.14439660,0.02448235,-0.98921698
1314362661.46861529,0.14419706,0.02437217,-0.98924881
1314362661.52151656,0.14415764,0.02418651,-0.98925911
1314362661.57196164,0.14411177,0.02428841,-0.98926330
1314362661.62063456,0.14426374,0.02431272,-0.98924055
1314362661.66932178,0.14408306,0.02442929,-0.98926401
1314362661.70857167,0.14425617,0.02453096,-0.98923627
1314362661.76859283,0.14408079,0.02450819,-0.98926239
1314362661.81746078,0.14412641,0.02437688,-0.98925899
1314362661.86861348,0.14421965,0.02444912,-0.98924362
1314362661.91749692,0.14400726,0.02440337,-0.98927569
1314362661.96950793,0.14402379,0.02447304,-0.98927156
1314362662.01794648,0.14402517,0.02453638,-0.98926979
1314362662.07251811,0.14393619,0.02459042,-0.98928140
1314362662.11801791,0.14391579,0.02428266,-0.98929197
1314362662.16861343,0.14410774,0.02428624,-0.98926394
1314362662.21747756,0.14411183,0.02437248,-0.98926122
1314362662.26859593,0.14396356,0.02445461,-0.98928078
1314362662.31760359,0.14380056,0.02447556,-0.98930397
1314362662.37121201,0.14389995,0.02435668,-0.98929245
1314362662.42059994,0.14363654,0.02448929,-0.98932746
1314362662.47355032,0.14356247,0.02454581,-0.98933681
1314362662.52152681,0.14364439,0.02459482,-0.98932370
1314362662.56952524,0.14350353,0.02471854,-0.98934106
1314362662.61749101,0.14345546,0.02473314,-0.98934767
1314362662.66044736,0.14350883,0.02472103,-0.98934023
1314362662.72150135,0.14358322,0.02467323,-0.98933063
1314362662.77250862,0.14350757,0.02457394,-0.98934407
1314362662.82055044,0.14344779,0.02453065,-0.98935382
1314362662.86947656,0.14347564,0.02451054,-0.98935028
1314362662.92141652,0.14361477,0.02447534,-0.98933096
1314362662.96853328,0.14339553,0.02427171,-0.98936778
1314362663.01747394,0.14349180,0.02434552,-0.98935201
1314362663.06945729,0.14351302,0.02446458,-0.98934599
1314362663.11746645,0.14354187,0.02438940,-0.98934367
1314362663.16950035,0.14334208,0.02426250,-0.98937575
1314362663.22156477,0.14334531,0.02399687,-0.98938176
1314362663.27250314,0.14344742,0.02414158,-0.98936344
1314362663.31742764,0.14379989,0.02434916,-0.98930719
1314362663.36948586,0.14414638,0.02424216,-0.98925939
1314362663.41745877,0.14434819,0.02409640,-0.98923352
1314362663.46857715,0.14430993,0.02406519,-0.98923986
1314362663.52062607,0.14441530,0.02423046,-0.98922045
1314362663.56947708,0.14434235,0.02436483,-0.98922780
1314362663.62054157,0.14429323,0.02440252,-0.98923404
1314362663.67353892,0.14428426,0.02436638,-0.98923624
1314362663.71741509,0.14407095,0.02429474,-0.98926909
1314362663.76852107,0.14379201,0.02432609,-0.98930890
1314362663.81741142,0.14372649,0.02402779,-0.98932571
1314362663.86150265,0.14358397,0.02376950,-0.98935264
